GFSFLT2_700_spd_276.txt.gz
Wind_Speed
15 18 19 19 18 16 14 12 11 9 9 7 6 6 6 7 8 9 9 10 11 11 11 12 11 11 11 10 10 10 11 11
8 19 22 23 22 21 19 18 17 16 14 12 11 10 9 9 10 10 12 13 14 14 14 14 14 14 14 13 13 12 13 14
6 8 20 23 25 25 23 22 21 21 20 19 17 15 14 14 13 14 15 15 16 16 17 16 16 16 16 16 16 15 15 15
8 7 8 19 24 26 27 27 26 25 23 22 21 19 19 18 18 19 19 18 18 18 18 19 18 18 18 18 17 17 17 17
11 10 10 13 20 23 27 29 29 28 27 26 25 24 23 23 23 22 21 20 19 19 20 20 19 19 19 20 20 19 18 18
16 15 16 16 20 23 25 27 28 29 28 28 28 28 27 26 25 24 23 22 22 21 21 20 20 20 20 21 20 20 19 19
22 19 19 20 21 22 24 27 27 27 29 29 30 29 29 28 27 25 25 24 23 22 22 22 22 21 21 21 21 20 20 20
30 27 25 23 23 24 24 25 26 26 27 28 28 29 29 29 28 27 26 25 24 23 23 23 22 22 20 20 20 21 20 20
31 29 31 29 27 27 28 26 27 26 26 27 28 29 30 29 29 29 28 27 26 26 25 24 24 22 20 20 20 21 21 20
23 28 33 33 32 31 31 33 31 29 28 28 28 29 30 30 30 29 29 28 28 28 28 28 26 24 22 21 21 22 21 21
23 24 26 30 36 37 37 37 38 37 34 32 30 30 31 32 31 32 30 30 31 31 31 30 28 27 26 26 25 24 23 22
24 27 26 27 31 36 40 43 41 42 41 39 37 35 35 36 36 35 33 31 31 33 33 32 31 31 31 31 30 30 29 29
31 31 31 32 34 35 39 39 38 45 45 45 45 43 41 40 39 39 39 34 31 30 32 36 36 34 34 36 33 35 33 31
30 34 36 36 39 39 39 45 45 44 49 50 50 51 49 47 44 47 47 42 48 47 40 41 41 38 34 37 35 32 28 27
28 30 34 38 41 43 44 45 51 48 45 49 51 52 51 51 53 52 48 55 53 30 38 33 35 34 40 37 33 26 19 20
29 30 36 36 40 45 44 40 37 44 44 49 50 49 47 47 52 51 50 49 51 35 41 42 41 36 33 33 35 24 21 20
37 38 35 34 39 40 44 42 35 38 41 46 50 47 46 49 47 40 42 50 45 32 34 35 44 37 36 33 32 24 20 21
35 35 35 32 31 39 39 41 38 39 41 45 47 49 49 47 42 35 37 48 52 34 34 40 43 41 33 31 25 21 20 21
33 33 37 32 33 31 36 37 40 41 41 44 47 48 48 48 40 31 35 43 56 46 38 36 37 24 27 27 23 22 20 24
27 26 24 24 22 22 28 36 37 41 40 43 45 44 41 35 31 31 34 41 53 58 25 34 23 25 26 25 22 22 23 24

GFSFLT2_700_spd_279.txt.gz
Wind_Speed
5 14 17 17 15 13 11 10 10 10 9 9 9 8 9 9 9 10 10 10 10 11 12 12 12 12 11 11 12 12 12 13
10 8 16 21 21 20 18 17 15 15 14 14 13 13 13 13 12 12 12 12 13 14 15 15 15 15 14 14 14 14 14 15
10 9 9 16 23 25 25 23 22 21 21 20 19 19 18 17 16 15 16 16 16 17 17 17 18 17 16 17 18 16 17 17
14 13 12 13 19 26 29 29 29 27 26 24 24 23 22 21 21 21 20 20 20 20 19 20 19 19 19 20 19 19 19 18
21 17 17 17 19 23 27 31 32 31 31 30 29 28 26 25 25 24 24 23 22 22 22 22 22 21 21 23 20 20 20 20
29 25 19 20 21 23 26 26 30 33 33 33 33 31 31 30 29 28 26 26 25 25 25 24 24 24 23 24 23 21 21 20
32 33 25 22 22 25 25 28 29 30 34 34 35 35 34 33 32 31 31 29 28 27 27 26 25 25 25 25 24 23 22 22
29 36 34 29 27 26 28 28 29 31 32 34 34 35 37 35 35 33 33 32 31 29 28 28 28 27 26 25 24 24 24 23
24 33 33 37 34 33 32 32 32 32 34 34 36 34 36 37 36 34 33 33 32 32 31 30 31 29 28 27 25 24 25 24
18 23 29 33 36 36 38 37 37 35 36 36 36 36 34 38 38 36 35 36 34 34 33 33 32 32 31 29 29 27 25 23
23 19 25 29 29 34 39 41 42 41 41 40 39 38 38 38 39 38 38 38 36 35 34 34 34 34 34 33 32 31 29 27
25 25 28 29 31 33 34 38 42 45 45 45 43 43 41 40 40 40 40 39 38 37 36 35 33 34 35 36 36 35 34 32
26 26 26 28 30 34 36 37 38 41 46 50 50 49 48 47 45 44 44 41 38 40 34 32 36 34 36 36 40 40 37 36
26 28 28 27 31 33 36 40 43 43 44 48 50 55 55 52 50 50 49 44 45 46 49 51 45 50 51 41 41 43 40 35
24 25 28 31 34 37 37 40 46 47 46 47 48 57 58 58 56 55 55 51 48 50 52 58 51 45 40 50 45 47 38 41
33 33 32 32 34 38 41 44 45 46 48 46 47 51 58 59 60 59 57 55 52 51 53 54 55 53 47 42 46 41 42 42
31 34 35 35 33 33 35 42 48 45 44 45 43 44 50 54 53 55 56 56 51 50 55 55 57 55 52 42 38 43 38 44
30 31 31 34 36 37 39 38 39 47 46 44 41 42 45 49 46 49 49 49 45 44 52 56 55 52 47 47 43 43 44 53
41 35 35 32 30 31 33 36 39 41 42 40 37 37 36 34 41 46 44 44 42 41 47 57 58 54 51 50 43 39 36 33
38 40 31 29 32 32 32 32 22 26 26 28 31 35 34 32 31 29 29 33 31 34 44 56 57 45 51 49 41 40 29 37

GFSFLT2_700_spd_285.txt.gz
Wind_Speed
9 9 10 11 14 14 13 12 12 14 15 16 16 15 15 14 14 14 14 13 13 13 13 13 13 13 12 13 13 13 14 15
13 14 12 11 12 16 18 18 17 16 16 16 17 18 18 17 16 15 15 15 15 15 15 15 15 15 15 15 16 16 16 17
20 20 20 18 16 15 18 22 23 22 21 20 19 19 18 18 17 17 17 17 17 17 17 17 17 17 18 18 19 18 18 19
28 23 24 22 22 23 20 20 23 26 26 25 23 22 21 20 20 20 21 21 21 21 20 20 19 19 19 21 21 21 21 21
23 27 28 25 24 23 27 25 23 23 26 28 29 28 27 26 25 25 25 25 25 24 24 24 23 22 23 24 23 24 24 23
17 20 23 24 26 28 25 29 28 23 23 25 28 30 31 32 31 30 30 30 30 29 29 27 27 27 27 27 27 27 26 25
13 18 18 24 24 28 30 28 30 30 25 25 27 28 30 32 33 34 34 34 34 34 33 32 31 30 30 30 30 29 27 26
16 19 22 17 26 30 33 33 31 32 33 29 28 29 29 31 32 33 35 35 35 36 35 35 34 34 33 33 32 31 28 26
29 27 29 26 25 35 34 32 35 37 37 37 34 33 31 31 31 32 33 34 34 36 36 37 37 36 36 35 34 31 30 28
28 27 24 31 30 34 38 36 34 34 34 38 38 38 36 36 34 32 32 34 34 35 35 37 39 39 37 36 34 33 32 31
36 37 36 32 34 35 38 36 36 35 34 33 35 38 40 42 41 38 37 37 37 36 35 37 39 39 36 35 34 34 34 32
32 28 28 30 23 25 38 37 37 36 35 36 29 31 34 39 43 43 44 43 42 40 39 38 37 36 37 36 36 35 35 37
27 29 28 27 30 30 26 24 33 39 40 38 35 36 33 34 36 40 42 45 45 46 44 43 43 38 37 39 40 39 37 35
30 32 35 29 31 32 34 34 33 31 34 38 39 40 38 40 41 41 42 43 43 44 50 49 48 45 47 46 46 45 45 50
30 28 30 22 22 25 27 29 31 35 36 36 38 41 40 41 42 43 45 46 46 45 46 51 55 51 49 52 53 56 50 51
24 27 30 34 36 36 38 39 37 34 36 39 42 40 42 43 44 47 49 50 49 49 48 51 52 57 57 54 55 58 57 55
33 33 35 42 43 51 54 51 48 45 41 40 42 41 42 46 49 50 53 55 54 60 55 54 54 55 59 58 56 59 60 59
39 37 38 43 46 50 57 58 56 53 49 44 43 44 43 45 45 50 53 55 54 56 55 52 53 53 54 54 56 60 62 61
57 60 57 50 55 56 55 54 57 55 45 42 40 42 43 44 43 48 54 57 56 53 54 50 51 53 51 53 51 57 61 63
55 58 53 53 57 54 60 58 52 48 35 34 34 37 40 43 41 47 50 52 52 55 55 54 54 57 48 50 50 53 58 64

GFSFLT2_700_spd_288.txt.gz
Wind_Speed
14 15 15 14 12 11 14 16 16 16 19 21 22 22 21 21 20 19 18 18 17 16 16 15 15 15 15 15 15 15 16 16
16 16 16 18 19 19 17 16 19 19 19 20 22 23 23 23 22 21 20 19 18 18 18 17 17 17 17 18 17 18 17 19
17 19 21 21 19 20 22 21 21 23 24 23 22 22 23 23 22 21 21 20 20 19 19 18 18 19 19 19 20 19 20 21
16 22 24 28 28 25 24 25 25 26 27 27 26 24 24 23 22 22 22 22 22 21 21 21 21 19 19 21 21 22 23 23
12 17 22 23 30 32 27 28 30 29 29 31 31 30 30 29 27 26 26 25 25 25 25 25 24 23 23 24 25 25 26 25
23 20 22 21 25 30 28 32 29 29 32 33 33 35 34 34 33 31 31 30 30 29 29 29 29 28 27 28 29 29 28 28
28 28 23 18 26 31 34 35 35 32 31 33 38 35 37 37 35 35 36 36 36 36 35 34 33 33 32 32 32 33 32 31
29 28 25 24 25 32 36 39 42 42 37 33 34 38 38 40 40 38 36 37 38 39 39 39 38 37 37 37 36 35 35 33
32 35 37 37 36 35 38 42 43 45 45 39 38 35 37 38 40 40 37 37 37 38 40 41 42 41 40 39 39 37 37 34
28 34 39 46 52 52 46 41 44 44 41 47 48 36 35 36 37 40 40 39 39 38 38 39 40 40 41 40 39 38 36 34
33 40 37 39 38 39 38 40 40 44 44 40 42 38 40 32 33 36 41 41 40 41 41 40 40 39 41 40 39 38 35 33
29 32 32 37 37 35 34 31 30 30 34 32 38 34 41 27 46 36 35 40 44 45 45 44 43 41 41 43 43 40 38 36
31 40 37 34 41 45 40 38 35 33 32 33 30 33 37 34 34 41 43 41 39 38 45 46 46 47 48 47 47 45 43 41
34 35 37 35 37 43 47 39 32 33 33 32 35 35 35 37 38 39 43 48 46 46 43 43 43 49 52 50 52 50 47 45
44 43 37 37 38 39 42 47 47 43 43 45 45 42 39 37 37 40 43 44 50 49 49 50 49 47 50 52 54 57 51 51
46 42 40 42 42 45 49 48 55 57 62 58 55 56 52 47 42 40 45 46 48 52 54 56 54 53 53 52 55 54 56 58
57 58 59 56 57 52 52 56 62 65 66 67 67 59 52 48 47 43 42 46 49 52 53 59 67 63 51 52 56 55 53 58
58 59 57 58 59 57 56 45 46 51 62 63 52 51 45 44 44 43 42 44 50 52 54 55 61 65 67 54 55 57 59 57
52 50 51 54 56 55 50 46 50 51 52 49 45 37 33 30 33 38 40 40 45 47 52 55 55 61 48 62 61 57 56 56
47 48 49 50 46 42 43 43 46 48 45 43 41 28 28 29 24 26 31 35 38 44 48 46 49 55 58 58 69 62 57 57

GFSFLT2_700_spd_291.txt.gz
Wind_Speed
15 16 18 18 18 16 16 17 18 18 18 20 22 24 25 25 24 23 22 21 21 20 19 18 17 17 17 17 17 16 16 16
13 15 16 18 22 21 20 19 20 21 22 22 23 25 26 27 26 26 25 24 23 22 21 20 20 19 19 18 19 19 18 19
14 17 18 20 22 25 27 26 27 26 26 26 26 27 27 28 28 28 27 27 26 24 23 23 21 21 21 20 21 20 20 21
16 19 20 20 22 24 27 31 33 33 33 31 31 30 29 30 29 28 28 28 28 27 25 24 24 22 20 20 20 20 22 22
18 16 17 20 25 30 30 32 33 38 38 38 38 37 35 35 34 33 32 31 30 29 28 28 26 25 23 24 23 23 24 23
18 13 13 18 22 28 33 34 36 36 39 41 44 43 44 43 42 40 39 38 36 35 34 33 32 31 30 29 29 28 27 26
22 24 24 23 23 24 28 31 35 40 43 42 45 46 49 52 49 48 47 45 44 43 42 41 39 37 37 36 34 33 31 31
25 29 32 33 36 40 46 49 49 47 44 45 44 45 49 56 57 55 54 52 50 49 49 49 48 47 44 42 40 38 37 35
24 28 30 31 37 45 42 41 41 40 41 40 45 42 40 56 50 50 56 59 56 55 53 53 54 53 51 48 46 43 41 38
24 25 26 28 29 34 37 36 36 37 38 38 36 37 38 41 38 52 65 47 49 54 52 52 52 53 52 50 50 48 44 42
22 23 23 25 28 32 35 34 37 37 34 31 30 29 31 36 43 31 38 54 48 49 45 47 47 47 47 46 45 46 46 44
23 25 29 32 38 42 39 36 38 40 36 34 31 27 31 32 34 40 36 34 44 45 48 40 46 45 44 44 44 44 45 45
34 36 39 44 48 51 53 56 43 41 46 42 40 41 40 40 39 37 37 39 40 37 41 45 46 41 45 45 45 45 44 44
47 49 51 52 54 54 52 52 55 52 51 54 55 49 51 51 50 46 39 43 42 44 47 48 45 39 40 39 44 49 48 46
53 57 60 62 64 66 67 68 65 64 61 56 55 60 65 61 57 55 50 43 45 46 46 46 49 44 41 41 44 45 43 50
56 55 55 55 57 60 61 63 65 61 59 55 49 48 53 53 44 45 51 46 45 45 45 50 50 47 50 51 52 49 44 48
56 55 52 51 52 53 55 56 53 49 46 46 46 49 48 46 37 33 36 41 42 43 42 44 48 49 49 50 51 60 63 64
53 51 51 50 51 54 56 54 47 45 47 48 46 46 44 40 31 25 27 31 34 39 40 42 45 47 47 48 50 54 58 61
49 49 50 49 50 51 55 48 45 47 48 47 47 46 42 35 32 29 29 25 29 32 38 40 43 44 46 46 45 52 58 58
40 41 44 45 48 48 47 44 51 50 50 48 46 48 40 30 24 30 31 28 23 25 28 34 39 40 43 44 38 47 56 57

GFSFLT2_700_spd_294.txt.gz
Wind_Speed
12 14 15 17 19 20 18 17 18 21 21 21 23 24 25 25 24 23 23 23 22 22 21 20 20 19 18 18 18 17 16 15
13 13 15 15 17 18 20 22 21 21 30 28 27 27 27 28 28 28 27 26 25 24 24 24 23 22 22 21 20 20 19 18
15 17 20 20 20 19 20 24 26 26 25 33 34 33 31 31 32 32 31 30 29 28 27 27 26 26 26 25 25 23 21 20
12 13 17 22 25 24 26 27 28 30 30 34 33 35 41 38 36 36 36 35 34 33 32 31 31 31 29 28 27 24 23 21
15 11 15 18 21 22 24 26 28 31 33 35 40 42 40 49 42 42 41 40 40 39 38 37 36 35 33 32 30 28 26 25
13 8 10 14 16 18 21 23 27 31 33 33 39 37 39 38 43 51 48 48 46 45 44 43 42 41 40 38 37 35 32 30
17 19 20 23 24 27 29 31 32 32 32 32 34 36 40 46 46 42 54 54 52 52 52 50 48 47 46 44 42 40 39 36
22 21 22 23 24 25 26 28 30 32 33 33 34 39 40 36 39 45 46 55 64 62 57 57 56 54 52 49 47 47 44 43
20 22 21 22 24 25 27 28 29 31 32 33 34 34 35 37 35 35 42 53 43 62 73 61 60 60 59 55 53 52 52 48
21 21 22 25 28 30 33 35 36 37 36 35 32 30 28 26 29 29 29 29 38 56 67 57 55 57 65 62 59 58 57 54
27 30 33 36 40 43 46 49 49 46 43 44 44 41 39 37 36 33 30 31 32 31 30 46 75 55 50 63 62 60 58 58
38 41 45 49 53 54 56 59 61 60 59 54 49 49 50 51 47 46 44 41 34 31 31 33 43 69 58 51 50 52 50 49
46 50 52 55 58 59 61 62 64 65 62 54 55 56 50 48 54 50 49 49 47 41 36 36 41 42 41 66 55 53 52 50
51 54 56 56 56 55 55 56 55 56 56 53 45 43 49 52 46 46 48 50 50 50 47 41 41 39 45 46 52 51 69 55
57 57 58 59 57 53 49 48 50 51 51 48 44 42 40 40 43 43 45 41 39 43 47 47 43 42 41 44 47 46 56 43
58 59 59 57 57 55 52 54 56 52 48 47 42 46 49 47 43 41 37 36 34 40 40 44 44 41 42 46 46 48 46 32
60 60 58 56 56 52 53 54 53 50 49 47 48 47 50 49 45 42 33 29 32 37 39 40 41 42 40 41 45 45 44 40
56 50 48 49 49 47 53 57 50 49 51 54 53 50 50 48 45 38 30 28 31 34 37 38 40 39 39 39 41 42 40 42
53 48 47 48 52 53 52 50 47 49 53 54 51 49 47 42 40 29 29 26 28 32 33 37 39 39 39 38 41 42 42 43
52 52 49 46 46 44 44 45 48 49 48 46 47 44 39 37 32 31 26 27 26 30 21 29 33 35 37 39 42 44 44 44

GFSFLT2_700_spd_297.txt.gz
Wind_Speed
13 13 12 11 12 13 15 17 18 18 18 19 19 19 21 28 29 27 26 25 24 23 23 22 22 21 20 20 20 19 19 17
13 16 18 19 19 20 21 21 20 22 22 25 25 23 27 25 27 31 32 31 29 28 28 27 27 26 25 24 24 24 23 21
12 13 16 18 19 20 20 22 25 26 27 27 30 33 31 35 31 31 35 35 35 34 34 33 32 32 31 29 29 29 27 25
13 14 17 19 21 19 17 17 21 21 22 21 26 31 33 38 36 44 49 36 42 39 38 38 38 37 36 35 34 33 32 29
13 14 14 16 16 17 17 19 19 20 22 23 24 28 31 37 42 37 31 42 51 48 40 43 44 43 42 41 40 38 37 35
12 12 14 18 20 20 21 22 22 23 24 24 23 23 24 28 28 28 32 36 32 44 59 51 48 49 48 47 45 44 41 40
15 18 19 21 23 23 22 23 24 25 27 29 31 33 33 34 34 31 28 31 44 37 47 57 60 55 53 52 50 49 47 46
19 20 21 22 23 25 27 29 32 35 35 35 36 38 39 40 38 34 33 31 32 38 41 42 56 69 65 60 54 55 54 51
24 27 30 33 35 38 41 45 46 47 47 44 41 40 40 40 39 33 32 32 35 35 39 41 51 50 78 71 64 62 60 58
28 33 36 41 44 47 51 53 53 52 52 53 52 49 47 44 44 44 43 39 34 32 34 35 39 38 49 68 78 73 68 61
40 43 47 50 52 53 53 53 54 54 53 50 50 50 48 47 44 42 42 45 45 44 41 37 35 37 38 40 46 57 68 62
45 47 50 54 57 57 58 56 54 52 51 50 48 44 40 37 38 38 38 41 43 44 50 47 45 38 33 36 33 54 73 78
50 56 59 60 60 61 60 58 53 49 49 47 38 37 37 36 36 37 38 39 39 41 45 49 51 47 41 42 45 45 48 53
57 60 61 60 60 59 55 52 50 50 52 53 46 39 39 39 40 41 40 41 39 38 41 43 50 52 46 48 45 42 42 45
61 62 62 59 56 52 46 46 49 51 51 50 47 47 44 43 43 44 43 42 41 38 38 42 43 46 48 45 46 46 40 47
60 60 57 54 51 48 47 51 51 47 46 46 47 48 49 46 41 42 43 42 38 37 38 43 38 42 44 46 49 47 45 45
57 52 46 45 45 46 46 45 45 44 45 46 46 45 45 45 42 37 37 36 34 33 35 42 33 32 40 43 47 51 51 54
54 49 40 38 40 43 41 43 42 45 48 47 45 46 46 42 35 30 28 31 28 27 27 33 38 32 34 38 40 40 45 49
53 45 40 38 38 42 40 39 42 48 48 46 46 46 43 37 34 31 28 26 24 24 24 26 31 32 34 34 37 38 38 46
46 35 34 34 35 38 36 39 44 47 46 46 46 43 40 38 34 31 27 26 25 25 23 22 24 27 29 34 36 38 38 40

GFSFLT2_700_spd_303.txt.gz
Wind_Speed
17 19 19 18 18 18 18 18 20 20 21 22 23 23 24 25 27 27 26 24 25 24 24 23 25 29 31 30 29 28 27 27
18 19 17 18 18 17 18 19 20 22 24 26 27 28 29 29 30 31 32 33 30 29 29 29 31 31 31 32 35 34 33 31
17 17 15 17 18 17 17 19 19 21 21 22 22 23 27 30 33 34 35 35 37 36 33 29 32 37 38 34 35 39 38 38
16 17 19 21 22 24 25 26 27 28 28 29 29 28 30 29 29 30 32 36 40 41 40 41 42 40 37 39 40 38 43 42
17 18 19 21 24 25 28 31 32 35 37 36 37 39 40 40 40 38 35 36 36 37 40 40 45 49 50 47 45 43 42 48
20 21 23 24 25 28 31 33 36 39 42 45 45 46 46 45 45 46 45 43 44 40 39 39 41 42 44 46 47 45 44 47
24 26 28 31 35 38 42 45 47 48 50 50 51 50 50 48 46 45 46 46 50 46 46 46 47 46 48 46 51 49 44 48
30 34 37 41 45 50 51 54 53 54 56 57 59 55 55 53 52 48 44 47 51 49 49 51 51 52 51 51 53 54 49 48
38 41 43 47 51 51 52 56 55 56 57 57 60 57 58 53 49 48 49 46 44 47 52 53 54 57 57 57 57 59 58 52
41 44 46 48 51 52 53 54 55 54 52 52 55 53 51 49 47 44 45 44 43 44 47 51 55 55 59 55 60 60 59 57
44 49 49 50 51 53 55 54 51 48 47 47 44 41 42 41 39 39 39 40 43 45 46 47 51 53 52 59 60 62 57 57
46 49 51 53 55 56 54 51 45 40 39 38 37 36 38 38 39 39 38 37 36 40 45 44 45 50 51 53 59 61 58 58
48 50 52 53 52 51 49 43 38 37 37 35 36 40 42 42 41 40 40 40 38 39 39 43 42 46 46 48 56 61 64 60
48 48 49 49 49 45 39 36 36 36 33 37 43 45 46 46 45 43 41 40 39 37 39 43 43 41 44 45 46 55 59 66
47 46 47 47 43 38 36 34 34 31 37 44 46 47 47 46 44 43 41 39 37 35 34 38 42 36 37 38 43 46 58 59
43 43 43 40 38 38 37 38 38 42 45 47 48 47 46 43 41 40 39 37 35 34 32 34 36 36 33 34 36 41 47 63
40 41 40 40 40 40 41 42 44 46 47 46 45 46 46 42 40 37 35 33 33 32 31 31 32 30 30 31 30 34 40 49
39 40 41 41 42 42 43 43 44 45 46 46 46 44 41 38 35 33 32 31 32 30 29 29 28 27 26 27 29 28 36 43
38 40 41 41 41 42 44 45 46 46 46 45 42 39 37 36 36 35 33 34 32 29 27 27 25 24 24 25 25 26 32 37
37 38 40 40 40 41 43 44 43 42 40 39 38 37 36 35 34 34 32 32 32 29 26 24 22 21 21 23 23 23 32 32